• In Schweiz
  • Länderverzeichnis
  • Für 7 Tage
  • Wassertemperatur
  • Satellitenkarten
  • Wetterkarte
  • Widgets
  • user-avatar
    Anmelden

    Stündliche Wetter Serby

    Heute, 18 Juli, Mittwoch

    Zeit Temperatur Niederschläge Wind Luftdruck Luftfeuchtigkeit
    00:00 +19°C° 0 mm 1 m/S 732 mmHg 94%
    01:00 +19°C° 0 mm 1 m/S 732 mmHg 94%
    02:00 +18°C° 0 mm 1 m/S 731 mmHg 95%
    03:00 +18°C° 0 mm 1 m/S 731 mmHg 95%
    04:00 +18°C° 0 mm 1 m/S 731 mmHg 96%
    05:00 +18°C° 0 mm 1 m/S 731 mmHg 96%
    06:00 +20°C° 0 mm 1 m/S 732 mmHg 92%
    07:00 +21°C° 0 mm 1 m/S 732 mmHg 89%
    08:00 +22°C° 0 mm 1 m/S 732 mmHg 84%
    09:00 +23°C° 0,3 mm 1 m/S 732 mmHg 81%
    10:00 +24°C° 0,3 mm 1 m/S 732 mmHg 78%
    11:00 +25°C° 0,3 mm 1 m/S 732 mmHg 76%
    12:00 +26°C° 0,6 mm 1 m/S 732 mmHg 74%
    13:00 +26°C° 0,6 mm 2 m/S 732 mmHg 72%
    14:00 +26°C° 0 mm 2 m/S 732 mmHg 70%
    15:00 +27°C° 0,3 mm 2 m/S 732 mmHg 70%
    16:00 +27°C° 0,3 mm 2 m/S 732 mmHg 70%
    17:00 +27°C° 0,3 mm 2 m/S 732 mmHg 70%
    18:00 +26°C° 0,4 mm 2 m/S 732 mmHg 76%
    19:00 +24°C° 0,4 mm 1 m/S 732 mmHg 82%
    20:00 +23°C° 0,4 mm 1 m/S 732 mmHg 87%
    21:00 +22°C° 1,1 mm 1 m/S 732 mmHg 90%
    22:00 +21°C° 1,1 mm 2 m/S 732 mmHg 92%
    23:00 +20°C° 1,1 mm 2 m/S 732 mmHg 94%

    Morgen, 19 Juli, Donnerstag

    Zeit Temperatur Niederschläge Wind Luftdruck Luftfeuchtigkeit
    00:00 +20°C° 0,1 mm 2 m/S 732 mmHg 95%
    01:00 +19°C° 0,1 mm 2 m/S 732 mmHg 96%
    02:00 +19°C° 0,1 mm 2 m/S 733 mmHg 96%
    03:00 +19°C° 0 mm 2 m/S 733 mmHg 97%
    04:00 +18°C° 0 mm 2 m/S 733 mmHg 97%
    05:00 +18°C° 0 mm 2 m/S 733 mmHg 98%
    06:00 +19°C° 0 mm 2 m/S 733 mmHg 95%
    07:00 +21°C° 0 mm 3 m/S 733 mmHg 92%
    08:00 +22°C° 0 mm 3 m/S 733 mmHg 89%
    09:00 +24°C° 0,2 mm 3 m/S 734 mmHg 82%
    10:00 +26°C° 0,2 mm 3 m/S 734 mmHg 76%
    11:00 +27°C° 0,2 mm 3 m/S 734 mmHg 69%
    12:00 +27°C° 0,6 mm 3 m/S 734 mmHg 68%
    13:00 +28°C° 0,6 mm 3 m/S 733 mmHg 67%
    14:00 +28°C° 0,6 mm 3 m/S 733 mmHg 65%
    15:00 +28°C° 0,2 mm 3 m/S 733 mmHg 66%
    16:00 +28°C° 0,2 mm 3 m/S 733 mmHg 66%
    17:00 +28°C° 0,2 mm 3 m/S 733 mmHg 67%
    18:00 +26°C° 0,4 mm 3 m/S 733 mmHg 74%
    19:00 +24°C° 0,4 mm 3 m/S 733 mmHg 81%
    20:00 +21°C° 0,4 mm 3 m/S 733 mmHg 88%
    21:00 +21°C° 0 mm 3 m/S 734 mmHg 90%
    22:00 +20°C° 0 mm 3 m/S 734 mmHg 92%
    23:00 +19°C° 0 mm 3 m/S 734 mmHg 95%

    übermorgen, 20 Juli, Freitag

    Zeit Temperatur Niederschläge Wind Luftdruck Luftfeuchtigkeit
    00:00 +19°C° 0 mm 3 m/S 734 mmHg 95%
    01:00 +19°C° 0 mm 3 m/S 734 mmHg 96%
    02:00 +18°C° 0 mm 3 m/S 734 mmHg 97%
    03:00 +18°C° 0 mm 3 m/S 734 mmHg 97%
    04:00 +18°C° 0 mm 3 m/S 734 mmHg 97%
    05:00 +18°C° 0 mm 3 m/S 734 mmHg 98%
    06:00 +19°C° 0 mm 4 m/S 734 mmHg 95%
    07:00 +19°C° 0 mm 4 m/S 735 mmHg 93%
    08:00 +20°C° 0 mm 4 m/S 735 mmHg 90%
    09:00 +21°C° 0,1 mm 4 m/S 735 mmHg 89%
    10:00 +21°C° 0,1 mm 4 m/S 735 mmHg 87%
    11:00 +21°C° 0,1 mm 4 m/S 735 mmHg 85%
    12:00 +23°C° 0,1 mm 4 m/S 735 mmHg 80%
    13:00 +25°C° 0,1 mm 4 m/S 735 mmHg 74%
    14:00 +26°C° 0,1 mm 5 m/S 734 mmHg 68%
    15:00 +26°C° 0,4 mm 5 m/S 734 mmHg 71%
    16:00 +26°C° 0,4 mm 4 m/S 734 mmHg 73%
    17:00 +25°C° 0,4 mm 4 m/S 734 mmHg 76%
    18:00 +23°C° 0,4 mm 4 m/S 734 mmHg 81%
    19:00 +22°C° 0,4 mm 3 m/S 734 mmHg 86%
    20:00 +21°C° 0,4 mm 3 m/S 735 mmHg 91%
    21:00 +20°C° 0 mm 3 m/S 735 mmHg 93%
    22:00 +20°C° 0 mm 3 m/S 735 mmHg 95%
    23:00 +19°C° 0 mm 3 m/S 735 mmHg 96%

    21 Juli, Samstag

    Zeit Temperatur Niederschläge Wind Luftdruck Luftfeuchtigkeit
    00:00 +19°C° 0 mm 3 m/S 735 mmHg 97%
    01:00 +19°C° 0 mm 3 m/S 735 mmHg 97%
    02:00 +19°C° 0 mm 3 m/S 735 mmHg 98%
    03:00 +19°C° 0 mm 3 m/S 735 mmHg 98%
    04:00 +19°C° 0 mm 3 m/S 735 mmHg 98%
    05:00 +19°C° 0 mm 3 m/S 735 mmHg 98%
    06:00 +19°C° 0,3 mm 3 m/S 736 mmHg 97%
    07:00 +19°C° 0,3 mm 4 m/S 736 mmHg 96%
    08:00 +20°C° 0,3 mm 4 m/S 736 mmHg 94%
    09:00 +20°C° 0,1 mm 4 m/S 736 mmHg 92%
    10:00 +21°C° 0,1 mm 4 m/S 736 mmHg 90%
    11:00 +21°C° 0,1 mm 4 m/S 736 mmHg 88%
    12:00 +22°C° 0,1 mm 4 m/S 736 mmHg 82%
    13:00 +25°C° 0,1 mm 4 m/S 736 mmHg 76%
    14:00 +26°C° 0,1 mm 5 m/S 736 mmHg 71%
    15:00 +26°C° 0,1 mm 5 m/S 736 mmHg 69%
    16:00 +27°C° 0,1 mm 5 m/S 736 mmHg 67%
    17:00 +27°C° 0,1 mm 4 m/S 736 mmHg 65%
    18:00 +25°C° 0,1 mm 4 m/S 736 mmHg 71%
    19:00 +23°C° 0,1 mm 4 m/S 737 mmHg 77%
    20:00 +21°C° 0,1 mm 3 m/S 737 mmHg 82%
    21:00 +21°C° 0 mm 3 m/S 737 mmHg 85%
    22:00 +20°C° 0 mm 3 m/S 737 mmHg 88%
    23:00 +19°C° 0 mm 3 m/S 737 mmHg 91%

    22 Juli, Sonntag

    Zeit Temperatur Niederschläge Wind Luftdruck Luftfeuchtigkeit
    00:00 +18°C° 0 mm 3 m/S 737 mmHg 91%
    01:00 +18°C° 0 mm 3 m/S 737 mmHg 92%
    02:00 +17°C° 0 mm 3 m/S 737 mmHg 93%
    03:00 +17°C° 0 mm 3 m/S 737 mmHg 93%
    04:00 +17°C° 0 mm 3 m/S 737 mmHg 94%
    05:00 +16°C° 0 mm 3 m/S 737 mmHg 94%
    06:00 +18°C° 0 mm 3 m/S 737 mmHg 89%
    07:00 +20°C° 0 mm 3 m/S 737 mmHg 83%
    08:00 +21°C° 0 mm 3 m/S 737 mmHg 78%
    09:00 +24°C° 0 mm 3 m/S 737 mmHg 71%
    10:00 +25°C° 0 mm 4 m/S 737 mmHg 65%
    11:00 +26°C° 0 mm 4 m/S 737 mmHg 58%
    12:00 +27°C° 0 mm 4 m/S 737 mmHg 56%
    13:00 +27°C° 0 mm 4 m/S 737 mmHg 54%
    14:00 +28°C° 0 mm 4 m/S 736 mmHg 52%
    15:00 +28°C° 0 mm 4 m/S 736 mmHg 53%
    16:00 +28°C° 0 mm 3 m/S 736 mmHg 55%
    17:00 +28°C° 0 mm 3 m/S 736 mmHg 56%
    18:00 +26°C° 0 mm 3 m/S 736 mmHg 62%
    19:00 +24°C° 0 mm 2 m/S 736 mmHg 68%
    20:00 +21°C° 0 mm 2 m/S 736 mmHg 75%
    21:00 +20°C° 0 mm 2 m/S 736 mmHg 78%
    22:00 +20°C° 0 mm 2 m/S 736 mmHg 81%
    23:00 +19°C° 0 mm 2 m/S 737 mmHg 84%

    23 Juli, Montag

    Zeit Temperatur Niederschläge Wind Luftdruck Luftfeuchtigkeit
    00:00 +18°C° 0 mm 2 m/S 737 mmHg 86%
    01:00 +18°C° 0 mm 2 m/S 737 mmHg 89%
    02:00 +17°C° 0 mm 2 m/S 737 mmHg 92%
    03:00 +17°C° 0 mm 2 m/S 737 mmHg 93%
    04:00 +17°C° 0 mm 2 m/S 737 mmHg 94%
    05:00 +17°C° 0 mm 2 m/S 737 mmHg 95%
    06:00 +19°C° 0 mm 2 m/S 737 mmHg 88%
    07:00 +20°C° 0 mm 2 m/S 737 mmHg 81%
    08:00 +23°C° 0 mm 2 m/S 738 mmHg 75%
    09:00 +25°C° 0 mm 2 m/S 738 mmHg 68%
    10:00 +26°C° 0 mm 3 m/S 737 mmHg 62%
    11:00 +27°C° 0 mm 3 m/S 737 mmHg 56%
    12:00 +28°C° 0 mm 3 m/S 737 mmHg 54%
    13:00 +28°C° 0 mm 3 m/S 737 mmHg 51%
    14:00 +29°C° 0 mm 3 m/S 737 mmHg 49%
    15:00 +29°C° 0 mm 3 m/S 737 mmHg 51%
    16:00 +29°C° 0 mm 3 m/S 737 mmHg 52%
    17:00 +28°C° 0 mm 3 m/S 737 mmHg 54%
    18:00 +27°C° 0 mm 3 m/S 737 mmHg 60%
    19:00 +25°C° 0 mm 2 m/S 738 mmHg 66%
    20:00 +23°C° 0 mm 2 m/S 738 mmHg 72%
    21:00 +21°C° 0 mm 2 m/S 738 mmHg 76%
    22:00 +20°C° 0 mm 2 m/S 738 mmHg 80%
    23:00 +19°C° 0 mm 2 m/S 738 mmHg 84%
    Mehr zeigen